EW8771 Weather Reports


Display with metric or nautical units.
time (UTC)temp
F
wind
direction
speed
MPH
gust
MPH
rain 1hr
in
rain 24hr
in
rain mn
in
humidity
%
barometer
mb
20190920072104 47 89 1.0 2.0 0.00 0.00 0.00 78 1030.5
20190920071604 46 86 1.0 2.0 0.00 0.00 0.00 79 1030.6
20190920071104 46 98 0.0 1.0 0.00 0.00 0.00 79 1030.5
20190920070604 46 98 1.0 2.0 0.00 0.00 0.00 80 1030.5
20190920070104 45 103 0.0 2.0 0.00 0.00 0.00 80 1030.5
20190920065604 46 171 0.0 1.0 0.00 0.00 0.00 79 1030.4
20190920065104 45 192 0.0 0.0 0.00 0.00 0.00 79 1030.3
20190920064605 45 193 0.0 2.0 0.00 0.00 0.00 79 1030.4
20190920064104 45 312 0.0 0.0 0.00 0.00 0.00 78 1030.1
20190920063604 44 313 0.0 0.0 0.00 0.00 0.00 82 1030.1
20190920063104 43 313 0.0 0.0 0.00 0.00 0.00 82 1030.2
20190920062604 43 313 0.0 0.0 0.00 0.00 0.00 83 1030.1
20190920062104 42 313 0.0 0.0 0.00 0.00 0.00 83 1030.0
20190920061604 42 313 0.0 0.0 0.00 0.00 0.00 84 1029.9
20190920061104 41 314 0.0 0.0 0.00 0.00 0.00 85 1029.8
20190920060604 41 315 0.0 0.0 0.00 0.00 0.00 85 1029.8
20190920060104 41 314 0.0 0.0 0.00 0.00 0.00 86 1029.9
20190920055604 40 315 0.0 0.0 0.00 0.00 0.00 87 1029.9
20190920055105 40 315 0.0 0.0 0.00 0.00 0.00 88 1029.9
20190920054605 39 315 0.0 2.0 0.00 0.00 0.00 89 1029.8
20190920054104 39 316 0.0 1.0 0.00 0.00 0.00 90 1029.8
20190920053604 38 316 0.0 0.0 0.00 0.00 0.00 90 1029.8
20190920053104 37 317 0.0 0.0 0.00 0.00 0.00 90 1029.8
20190920052604 37 317 0.0 0.0 0.00 0.00 0.00 90 1029.8
20190920052104 37 317 0.0 0.0 0.00 0.00 0.00 90 1029.8
20190920051604 37 317 0.0 0.0 0.00 0.00 0.00 90 1029.8
20190920051104 37 316 0.0 0.0 0.00 0.00 0.00 89 1029.7
20190920050604 37 317 0.0 1.0 0.00 0.00 0.00 89 1029.8
20190920050105 37 317 1.0 2.0 0.00 0.00 0.00 89 1029.6
20190920045604 37 316 0.0 0.0 0.00 0.00 0.00 89 1029.7
20190920045104 37 316 0.0 0.0 0.00 0.00 0.00 89 1029.8
20190920044604 37 316 0.0 0.0 0.00 0.00 0.00 89 1029.8
20190920044104 37 316 0.0 1.0 0.00 0.00 0.00 89 1029.8
20190920043604 37 317 1.0 2.0 0.00 0.00 0.00 89 1029.8
20190920043104 37 316 1.0 2.0 0.00 0.00 0.00 89 1029.7
20190920042604 37 316 0.0 1.0 0.00 0.00 0.00 88 1029.8
20190920042104 38 316 1.0 2.0 0.00 0.00 0.00 89 1029.8
20190920041604 38 317 1.0 2.0 0.00 0.00 0.00 89 1029.8
20190920041104 37 317 0.0 1.0 0.00 0.00 0.00 89 1029.8
20190920040605 37 317 1.0 2.0 0.00 0.00 0.00 89 1029.7
20190920040104 37 317 1.0 2.0 0.00 0.00 0.00 89 1029.6
20190920035604 37 317 1.0 2.0 0.00 0.00 0.00 89 1029.7
20190920035106 37 317 1.0 2.0 0.00 0.00 0.00 89 1029.7
20190920034605 37 317 1.0 2.0 0.00 0.00 0.00 89 1029.7
20190920034104 38 317 0.0 1.0 0.00 0.00 0.00 89 1029.7
20190920033604 37 317 0.0 1.0 0.00 0.00 0.00 89 1029.8
20190920033104 37 317 1.0 2.0 0.00 0.00 0.00 89 1029.9
20190920032604 38 317 1.0 2.0 0.00 0.00 0.00 88 1029.9
20190920032104 38 317 0.0 2.0 0.00 0.00 0.00 88 1030.0
20190920031604 38 317 0.0 1.0 0.00 0.00 0.00 88 1029.9
20190920031104 38 317 0.0 1.0 0.00 0.00 0.00 88 1030.0
20190920030604 38 317 0.0 1.0 0.00 0.00 0.00 89 1029.9
20190920030112 38 317 1.0 2.0 0.00 0.00 0.00 89 1029.9
20190920025605 38 317 1.0 2.0 0.00 0.00 0.00 88 1029.9
20190920025103 38 317 0.0 0.0 0.00 0.00 0.00 88 1029.9
20190920024604 38 317 0.0 0.0 0.00 0.00 0.00 88 1029.9
20190920024104 38 317 0.0 0.0 0.00 0.00 0.00 87 1029.9
20190920023604 39 317 0.0 0.0 0.00 0.00 0.00 87 1029.9
20190920023105 39 317 0.0 1.0 0.00 0.00 0.00 88 1029.9
20190920022605 39 317 1.0 2.0 0.00 0.00 0.00 88 1029.9
20190920022105 39 317 1.0 2.0 0.00 0.00 0.00 88 1029.9
20190920021603 39 318 1.0 2.0 0.00 0.00 0.00 88 1029.9
20190920021104 39 318 1.0 2.0 0.00 0.00 0.00 88 1029.8
20190920020604 39 318 1.0 3.0 0.00 0.00 0.00 89 1029.8
20190920020104 38 318 1.0 2.0 0.00 0.00 0.00 89 1029.9
20190920015604 38 319 1.0 3.0 0.00 0.00 0.00 89 1029.9
20190920015104 38 319 1.0 2.0 0.00 0.00 0.00 90 1030.0
20190920014604 38 320 0.0 1.0 0.00 0.00 0.00 90 1030.0
20190920014104 38 319 0.0 0.0 0.00 0.00 0.00 90 1030.0
20190920013604 38 319 0.0 0.0 0.00 0.00 0.00 90 1030.0
20190920013104 38 320 0.0 0.0 0.00 0.00 0.00 90 1030.0
20190920012605 37 319 0.0 0.0 0.00 0.00 0.00 89 1030.0
20190920012104 38 320 0.0 0.0 0.00 0.00 0.00 89 1030.0
20190920011604 38 319 0.0 0.0 0.00 0.00 0.00 89 1030.0
20190920011105 38 319 0.0 0.0 0.00 0.00 0.00 89 1030.0
20190920010604 38 320 0.0 0.0 0.00 0.00 0.00 89 1030.1
20190920010104 38 320 0.0 0.0 0.00 0.00 0.00 89 1030.2
20190920005604 38 320 0.0 0.0 0.00 0.00 0.00 89 1030.2
20190920005104 38 320 0.0 0.0 0.00 0.00 0.00 90 1030.2
20190920004605 38 320 0.0 0.0 0.00 0.00 0.00 90 1030.1
20190920004104 37 320 0.0 0.0 0.00 0.00 0.00 89 1030.1
20190920003604 37 320 0.0 0.0 0.00 0.00 0.00 89 1030.1
20190920003104 38 319 0.0 1.0 0.00 0.00 0.00 90 1030.2
20190920002604 37 319 0.0 2.0 0.00 0.00 0.00 90 1030.2
20190920002104 37 319 1.0 2.0 0.00 0.00 0.00 89 1030.1
20190920001604 37 319 1.0 2.0 0.00 0.00 0.00 89 1030.3
20190920001104 38 319 1.0 2.0 0.00 0.00 0.00 88 1030.3
20190920000604 38 319 0.0 1.0 0.00 0.00 0.00 88 1030.3
20190920000104 39 319 0.0 3.0 0.00 0.00 0.00 88 1030.2
20190919235604 39 319 1.0 2.0 0.00 0.00 0.00 89 1030.2
20190919235104 38 320 1.0 3.0 0.00 0.00 0.00 90 1030.3
20190919234605 38 317 2.0 3.0 0.00 0.00 0.00 90 1030.3
20190919234104 37 295 1.0 2.0 0.00 0.00 0.00 90 1030.3
20190919233605 37 258 1.0 2.0 0.00 0.00 0.00 89 1030.4
20190919233104 37 258 1.0 3.0 0.00 0.00 0.00 89 1030.4
20190919232604 38 258 2.0 3.0 0.00 0.00 0.00 88 1030.5
20190919232104 39 322 0.0 2.0 0.00 0.00 0.00 88 1030.6
20190919231604 39 323 1.0 3.0 0.00 0.00 0.00 89 1030.7
20190919231104 38 323 2.0 3.0 0.00 0.00 0.00 89 1030.7
20190919230603 38 324 1.0 3.0 0.00 0.00 0.00 90 1030.7
20190919230106 38 325 2.0 3.0 0.00 0.00 0.00 90 1030.7
20190919225604 38 325 1.0 2.0 0.00 0.00 0.00 89 1030.8
20190919225104 38 325 1.0 2.0 0.00 0.00 0.00 89 1030.8
20190919224604 38 325 1.0 2.0 0.00 0.00 0.00 89 1030.8
20190919224104 38 325 1.0 2.0 0.00 0.00 0.00 89 1030.7
20190919223604 38 325 1.0 2.0 0.00 0.00 0.00 89 1030.8
20190919223104 38 325 1.0 2.0 0.00 0.00 0.00 90 1030.8
20190919222605 38 325 2.0 2.0 0.00 0.00 0.00 90 1030.8
20190919222104 38 325 1.0 2.0 0.00 0.00 0.00 90 1031.0
20190919221604 38 325 1.0 2.0 0.00 0.00 0.00 90 1031.0
20190919221106 38 326 0.0 1.0 0.00 0.00 0.00 90 1031.0
20190919220604 38 327 0.0 2.0 0.00 0.00 0.00 89 1031.0
20190919220106 38 327 1.0 2.0 0.00 0.00 0.00 90 1031.0
20190919215604 38 327 1.0 2.0 0.00 0.00 0.00 90 1031.0
20190919215104 38 327 1.0 2.0 0.00 0.00 0.00 90 1031.0
20190919214604 38 327 1.0 2.0 0.00 0.00 0.00 90 1031.0
20190919214104 39 327 1.0 2.0 0.00 0.00 0.00 90 1031.0
20190919213604 38 326 0.0 0.0 0.00 0.00 0.00 90 1031.0
20190919213104 38 327 0.0 0.0 0.00 0.00 0.00 90 1030.9
20190919212604 38 327 0.0 0.0 0.00 0.00 0.00 90 1031.0
20190919212104 38 327 0.0 1.0 0.00 0.00 0.00 90 1030.8
20190919211604 38 327 1.0 2.0 0.00 0.00 0.00 90 1030.9
20190919211104 38 328 1.0 2.0 0.00 0.00 0.00 90 1030.9
20190919210605 38 328 1.0 2.0 0.00 0.00 0.00 90 1031.0
20190919210104 38 328 1.0 2.0 0.00 0.00 0.00 90 1031.0
20190919205604 38 328 1.0 2.0 0.00 0.00 0.00 90 1030.9
20190919205104 38 328 1.0 2.0 0.00 0.00 0.00 90 1030.9
20190919204604 38 328 1.0 2.0 0.00 0.00 0.00 90 1030.8
20190919204104 38 328 0.0 0.0 0.00 0.00 0.00 90 1030.8
20190919203604 38 328 0.0 0.0 0.00 0.00 0.00 90 1030.8
20190919203104 38 328 0.0 0.0 0.00 0.00 0.00 89 1030.8
20190919202604 38 328 0.0 2.0 0.00 0.00 0.00 89 1030.7
20190919202105 38 328 2.0 3.0 0.00 0.00 0.00 88 1030.7
20190919201605 38 329 1.0 2.0 0.00 0.00 0.00 88 1030.7
20190919201104 39 329 1.0 2.0 0.00 0.00 0.00 87 1030.6
20190919200604 39 329 0.0 0.0 0.00 0.00 0.00 86 1030.6
20190919200104 40 329 0.0 0.0 0.00 0.00 0.00 85 1030.7
20190919195605 40 329 0.0 1.0 0.00 0.00 0.00 85 1030.6
20190919195104 41 329 1.0 2.0 0.00 0.00 0.00 85 1030.4
20190919194604 41 334 1.0 2.0 0.00 0.00 0.00 85 1030.4
20190919194104 41 334 1.0 3.0 0.00 0.00 0.00 84 1030.3
20190919193604 41 319 2.0 5.0 0.00 0.00 0.00 84 1030.2
20190919193105 41 332 1.0 5.0 0.00 0.00 0.00 84 1030.3
20190919192605 41 325 2.0 5.0 0.00 0.00 0.00 84 1030.3
20190919192104 41 326 2.0 5.0 0.00 0.00 0.00 84 1030.2
20190919191604 41 321 1.0 5.0 0.00 0.00 0.00 84 1030.3
20190919191104 41 327 2.0 3.0 0.00 0.00 0.00 83 1030.2
20190919190604 41 326 1.0 3.0 0.00 0.00 0.00 83 1030.1
20190919190104 41 328 1.0 3.0 0.00 0.00 0.00 83 1030.1
20190919185604 42 325 1.0 5.0 0.00 0.00 0.00 83 1030.1
20190919185104 42 322 2.0 5.0 0.00 0.00 0.00 83 1030.1
20190919184604 42 327 1.0 3.0 0.00 0.00 0.00 83 1030.0
20190919184104 42 327 2.0 5.0 0.00 0.00 0.00 83 1030.1
20190919183604 42 322 0.0 2.0 0.00 0.00 0.00 83 1030.1
20190919183104 42 321 2.0 5.0 0.00 0.00 0.00 83 1030.0
20190919182605 42 343 2.0 6.0 0.00 0.00 0.00 83 1030.1
20190919182104 42 335 2.0 5.0 0.00 0.00 0.00 83 1030.1
20190919181604 42 344 1.0 5.0 0.00 0.00 0.00 83 1030.1
20190919181104 42 349 2.0 5.0 0.00 0.00 0.00 83 1030.1
20190919180604 42 346 1.0 5.0 0.00 0.00 0.00 83 1030.0
20190919180104 42 327 1.0 5.0 0.00 0.00 0.00 83 1029.9
20190919175604 42 328 1.0 3.0 0.00 0.00 0.00 83 1029.8
20190919175104 42 327 1.0 3.0 0.00 0.00 0.00 82 1029.9
20190919174604 43 322 1.0 2.0 0.00 0.00 0.00 81 1029.9
20190919174104 43 322 1.0 3.0 0.00 0.00 0.00 81 1029.9
20190919173604 43 327 1.0 2.0 0.00 0.00 0.00 80 1029.8
20190919173104 43 327 1.0 5.0 0.00 0.00 0.00 80 1029.7
20190919172604 43 338 1.0 3.0 0.00 0.00 0.00 79 1029.7
20190919172104 44 344 0.0 3.0 0.00 0.00 0.00 79 1029.7
20190919171604 44 347 2.0 3.0 0.00 0.00 0.00 78 1029.6
20190919171104 44 347 1.0 5.0 0.00 0.00 0.00 78 1029.6
20190919170605 44 326 1.0 5.0 0.00 0.00 0.00 78 1029.6
20190919170104 45 324 0.0 6.0 0.00 0.00 0.00 77 1029.5
20190919165604 45 3 1.0 5.0 0.00 0.00 0.00 77 1029.4
20190919165104 45 317 0.0 6.0 0.00 0.00 0.00 77 1029.4
20190919164604 45 356 1.0 5.0 0.00 0.00 0.00 77 1029.4
20190919164104 45 331 0.0 5.0 0.00 0.00 0.00 77 1029.4
20190919163605 45 325 1.0 6.0 0.00 0.00 0.00 77 1029.5
20190919163104 46 3 3.0 6.0 0.00 0.00 0.00 77 1029.4
20190919162604 46 336 1.0 6.0 0.00 0.00 0.00 77 1029.4
20190919162104 46 346 2.0 6.0 0.00 0.00 0.00 78 1029.3
20190919161604 46 354 2.0 6.0 0.00 0.00 0.00 77 1029.2
20190919161104 46 353 2.0 6.0 0.00 0.00 0.00 76 1029.2
20190919160604 46 353 3.0 9.0 0.00 0.00 0.00 76 1029.1
20190919160105 46 352 4.0 9.0 0.00 0.00 0.00 77 1029.2
20190919155604 47 329 3.0 6.0 0.00 0.00 0.00 77 1029.2
20190919155104 47 345 3.0 10.0 0.00 0.00 0.00 76 1029.3
20190919154604 47 3 3.0 10.0 0.00 0.00 0.00 75 1029.2
20190919154104 47 2 8.0 12.0 0.00 0.00 0.00 73 1029.2
20190919153604 47 354 6.0 14.0 0.00 0.00 0.00 72 1029.2
20190919153104 47 357 5.0 10.0 0.00 0.00 0.00 71 1029.3
20190919152604 48 334 4.0 13.0 0.00 0.00 0.00 72 1029.3
20190919152104 48 341 5.0 10.0 0.00 0.00 0.00 72 1029.3
20190919151604 48 4 3.0 10.0 0.00 0.00 0.00 72 1029.2
20190919151104 48 4 3.0 9.0 0.00 0.00 0.00 72 1029.2
20190919150604 48 353 4.0 9.0 0.00 0.00 0.00 72 1029.1
20190919150104 48 336 4.0 9.0 0.00 0.00 0.00 72 1029.1
20190919145605 48 0 3.0 8.0 0.00 0.00 0.00 74 1029.2
20190919145104 48 0 3.0 8.0 0.00 0.00 0.00 75 1029.2
20190919144604 47 313 3.0 7.0 0.00 0.00 0.00 75 1029.2
20190919144104 47 23 3.0 8.0 0.00 0.00 0.00 74 1029.2
20190919143604 47 3 3.0 9.0 0.00 0.00 0.00 74 1029.2
20190919143104 47 355 5.0 8.0 0.00 0.00 0.00 72 1029.2
20190919142604 47 340 6.0 10.0 0.00 0.00 0.00 71 1029.2
20190919142104 47 353 6.0 14.0 0.00 0.00 0.00 70 1029.3
20190919141604 48 350 5.0 10.0 0.00 0.00 0.00 70 1029.2
20190919141104 48 350 4.0 9.0 0.00 0.00 0.00 70 1029.2
20190919140604 49 346 3.0 8.0 0.00 0.00 0.00 70 1029.3
20190919140104 48 311 5.0 12.0 0.00 0.00 0.00 72 1029.3
20190919135604 47 319 2.0 7.0 0.00 0.00 0.00 73 1029.4
20190919135104 47 331 5.0 9.0 0.00 0.00 0.00 71 1029.3
20190919134604 47 306 4.0 9.0 0.00 0.00 0.00 70 1029.4
20190919134104 48 358 7.0 10.0 0.00 0.00 0.00 68 1029.5
20190919133604 48 21 8.0 13.0 0.00 0.00 0.00 67 1029.5
20190919133104 49 4 3.0 6.0 0.00 0.00 0.00 66 1029.3
20190919132604 49 320 6.0 12.0 0.00 0.00 0.00 66 1029.3
20190919132104 49 325 3.0 9.0 0.00 0.00 0.00 70 1029.3
20190919131604 48 358 2.0 12.0 0.00 0.00 0.00 72 1029.3
20190919131104 48 330 5.0 14.0 0.00 0.00 0.00 73 1029.4
20190919130604 48 310 3.0 10.0 0.00 0.00 0.00 74 1029.3
20190919130104 48 326 2.0 9.0 0.00 0.00 0.00 73 1029.3
20190919125605 48 336 6.0 9.0 0.00 0.00 0.00 71 1029.2
20190919125104 48 359 6.0 10.0 0.00 0.00 0.00 73 1029.3
20190919124604 48 347 5.0 8.0 0.00 0.00 0.00 72 1029.2
20190919124104 48 346 5.0 12.0 0.00 0.00 0.00 70 1029.1
20190919123604 49 333 3.0 9.0 0.00 0.00 0.00 70 1029.1
20190919123104 49 347 5.0 14.0 0.00 0.00 0.00 69 1029.1
20190919122604 49 353 6.0 15.0 0.00 0.00 0.00 67 1029.2
20190919122104 49 20 6.0 12.0 0.00 0.00 0.00 70 1029.3
20190919121605 48 347 6.0 12.0 0.00 0.00 0.00 70 1029.3
20190919121104 48 321 6.0 12.0 0.00 0.00 0.00 71 1029.4
20190919120604 48 339 6.0 12.0 0.00 0.00 0.00 70 1029.3
20190919120104 48 353 3.0 14.0 0.00 0.00 0.00 71 1029.4
20190919115604 47 6 7.0 15.0 0.00 0.00 0.00 69 1029.4
20190919115104 48 345 5.0 14.0 0.00 0.00 0.00 66 1029.3
20190919114604 49 5 5.0 10.0 0.00 0.00 0.00 68 1029.3
20190919114104 48 323 3.0 10.0 0.00 0.00 0.00 72 1029.4
20190919113605 47 338 5.0 14.0 0.00 0.00 0.00 73 1029.6
20190919113105 47 311 6.0 13.0 0.00 0.00 0.00 71 1029.6
20190919112604 48 352 6.0 12.0 0.00 0.00 0.00 72 1029.5
20190919112104 47 326 4.0 10.0 0.00 0.00 0.00 71 1029.5
20190919111613 48 299 3.0 8.0 0.00 0.00 0.00 71 1029.6
20190919111105 47 310 5.0 13.0 0.00 0.00 0.00 74 1029.5
20190919110605 46 0 4.0 13.0 0.00 0.00 0.00 73 1029.4
20190919110105 46 343 5.0 9.0 0.00 0.00 0.00 73 1029.4
20190919105604 47 347 5.0 10.0 0.00 0.00 0.00 74 1029.3
20190919105105 47 345 5.0 8.0 0.00 0.00 0.00 73 1029.4
20190919104604 47 326 5.0 15.0 0.00 0.00 0.00 74 1029.5
20190919104104 45 348 5.0 9.0 0.00 0.00 0.00 75 1029.7
20190919103604 45 1 7.0 13.0 0.00 0.00 0.00 76 1029.7
20190919103104 46 314 8.0 16.0 0.00 0.00 0.00 74 1029.7
20190919102604 46 345 6.0 14.0 0.00 0.00 0.00 75 1029.5
20190919102104 45 347 6.0 13.0 0.00 0.00 0.00 75 1029.5
20190919101604 45 3 7.0 14.0 0.00 0.00 0.00 75 1029.5
20190919101105 45 357 5.0 12.0 0.00 0.00 0.00 74 1029.3
20190919100604 46 325 7.0 12.0 0.00 0.00 0.00 72 1029.4
20190919100104 46 11 8.0 12.0 0.00 0.00 0.00 72 1029.4
20190919095604 46 11 10.0 16.0 0.00 0.00 0.00 72 1029.3
20190919095104 45 347 6.0 15.0 0.00 0.00 0.00 72 1029.3
20190919094604 45 334 8.0 13.0 0.00 0.00 0.00 73 1029.1
20190919093105 44 5 6.0 15.0 0.00 0.00 0.00 79 1029.1
20190919092604 44 346 5.0 13.0 0.00 0.00 0.00 78 1029.2
20190919092104 45 320 3.0 9.0 0.00 0.00 0.00 77 1029.3
20190919091605 45 342 5.0 15.0 0.00 0.00 0.00 78 1029.1
20190919091104 45 338 6.0 13.0 0.00 0.00 0.00 77 1029.0
20190919090604 44 0 6.0 16.0 0.00 0.00 0.00 76 1028.9
20190919090104 45 351 7.0 16.0 0.00 0.00 0.00 77 1028.9
20190919085604 45 339 9.0 14.0 0.00 0.00 0.00 78 1028.8
20190919085105 44 36 5.0 10.0 0.00 0.00 0.00 80 1028.8
20190919084604 44 345 5.0 15.0 0.00 0.00 0.00 80 1028.8
20190919084104 44 338 6.0 14.0 0.00 0.00 0.00 83 1028.8
20190919083604 44 355 9.0 17.0 0.00 0.00 0.00 84 1028.6
20190919083105 43 8 10.0 15.0 0.00 0.00 0.00 85 1028.6
20190919082604 44 7 6.0 13.0 0.00 0.00 0.00 86 1028.6
20190919082105 43 2 11.0 16.0 0.00 0.00 0.00 87 1028.6
20190919081605 43 12 7.0 13.0 0.00 0.00 0.00 87 1028.7
20190919081104 43 12 7.0 12.0 0.00 0.00 0.00 89 1028.8
20190919080604 42 33 4.0 10.0 0.00 0.00 0.00 90 1028.7
20190919080105 41 0 5.0 13.0 0.00 0.00 0.00 89 1028.7
20190919075604 42 353 6.0 13.0 0.00 0.00 0.00 88 1028.7
20190919075104 42 1 5.0 12.0 0.00 0.00 0.00 89 1028.6
20190919074605 41 348 8.0 15.0 0.00 0.00 0.00 89 1028.6
20190919074104 42 358 8.0 13.0 0.00 0.00 0.00 90 1028.5
20190919073604 41 3 7.0 10.0 0.00 0.00 0.00 89 1028.4
20190919073104 42 0 6.0 10.0 0.00 0.00 0.00 89 1028.3
20190919072604 41 331 4.0 12.0 0.00 0.00 0.00 91 1028.1